Location: Asheville, NC
(35.6000°N, 82.5500°W)
Time: 17:07:25
(UTC-04:00)

Vanguard 1 - Pass Details

Date: 12 February 2018
Orbit: 650 x 3833 km, 34.3° (Epoch: 21 May)

Event Time Altitude Azimuth Distance (km) Brightness Sun altitude
Rises 15:52:18 0° 223° (SW) 5,725 15.4 23.8°
Reaches altitude 10° 15:57:15 10° 214° (SW) 4,148 14.9 23.0°
Maximum altitude 16:05:32 30° 159° (SSE) 2,028 12.1 21.7°
Drops below altitude 10° 16:10:49 10° 99° (E) 2,592 11.9 20.8°
Sets 16:13:10 0° 87° (E) 3,315 12.3 20.4°
